sat.trackr.live / text

‹ back to catalog

MESON-1

NORAD 59131 · 2024-043AK

PAYLOAD ACTIVE UNKNOWN

§ Identity

Operator
Country
US
Launch date
2024-03-04
Launch site
AFWTR
Launch vehicle
Mass (kg)
RCS (m²)

External: N2YO · Heavens-Above · Gunter

§ Orbital elements

Epoch: 2026-05-24T22:34:31.999296Z

Period
94.07 min
Inclination
97.5612°
Eccentricity
0.0009196
Mean motion
15.30846687 rev/d
Perigee alt
467.0 km
Apogee alt
479.6 km
Semi-major
6,851.4 km
B*
1.6378e-4
RAAN
282.6463°
Arg perigee
330.3110°
Mean anomaly
29.7608°
Rev number
12,352

§ Raw data

MESON-11 59131U 24043AK  26144.94064814  .00004807  00000+0  16378-3 0  99912 59131  97.5612 282.6463 0009196 330.3110  29.7608 15.30846687123521

JSON: /api/v1/satellites/59131 · /tle

For live sub-satellite position, see the globe view (requires WebGL).

§ Visibility from observer

Set your observer location to see the next 7 days of passes ≥ 10°. The values pass through the URL so the page stays shareable.

No JS? Fill the form by hand. The geolocation button needs JavaScript.